Stündliche Wetter Bolshie Kirilly

Heute, 28 November, Samstag

Zeit Temperatur Niederschläge Wind Luftdruck Luftfeuchtigkeit
00:00 0°C° 0 mm 3 m/S 742 mmHg 94%
01:00 -1°C° 0 mm 2 m/S 743 mmHg 93%
02:00 0°C° 0 mm 1 m/S 743 mmHg 94%
03:00 0°C° 0 mm 1 m/S 743 mmHg 94%
04:00 0°C° 0 mm 1 m/S 744 mmHg 94%
05:00 0°C° 0 mm 1 m/S 744 mmHg 95%
06:00 -2°C° 0.1 mm 2 m/S 744 mmHg 95%
07:00 -1°C° 0.1 mm 2 m/S 745 mmHg 96%
08:00 -1°C° 0.1 mm 2 m/S 745 mmHg 96%
09:00 -1°C° 0 mm 2 m/S 746 mmHg 94%
10:00 +1°C° 0 mm 2 m/S 746 mmHg 92%
11:00 +1°C° 0 mm 2 m/S 747 mmHg 89%
12:00 +2°C° 0 mm 2 m/S 747 mmHg 89%
13:00 +2°C° 0 mm 2 m/S 747 mmHg 89%
14:00 +2°C° 0 mm 2 m/S 747 mmHg 89%
15:00 +1°C° 0 mm 2 m/S 748 mmHg 91%
16:00 0°C° 0 mm 3 m/S 748 mmHg 93%
17:00 -1°C° 0 mm 3 m/S 748 mmHg 95%
18:00 -1°C° 0 mm 3 m/S 748 mmHg 94%
19:00 -1°C° 0 mm 3 m/S 748 mmHg 94%
20:00 -1°C° 0 mm 3 m/S 748 mmHg 94%
21:00 -1°C° 0.2 mm 3 m/S 748 mmHg 95%
22:00 -1°C° 0.2 mm 3 m/S 748 mmHg 96%
23:00 -2°C° 0.2 mm 4 m/S 748 mmHg 96%

Morgen, 29 November, Sonntag

Zeit Temperatur Niederschläge Wind Luftdruck Luftfeuchtigkeit
00:00 -2°C° 0.5 mm 4 m/S 748 mmHg 96%
01:00 -2°C° 0.5 mm 4 m/S 748 mmHg 97%
02:00 -2°C° 0.5 mm 4 m/S 748 mmHg 97%
03:00 -1°C° 0.3 mm 4 m/S 747 mmHg 97%
04:00 0°C° 0.3 mm 3 m/S 747 mmHg 97%
05:00 0°C° 0.3 mm 3 m/S 746 mmHg 98%
06:00 +1°C° 0.3 mm 2 m/S 746 mmHg 98%
07:00 +1°C° 0.3 mm 2 m/S 747 mmHg 98%
08:00 +2°C° 0.3 mm 2 m/S 747 mmHg 98%
09:00 +2°C° 0.4 mm 2 m/S 747 mmHg 98%
10:00 +2°C° 0.4 mm 2 m/S 747 mmHg 98%
11:00 +3°C° 0.4 mm 1 m/S 747 mmHg 98%
12:00 +3°C° 0.7 mm 1 m/S 747 mmHg 98%
13:00 +3°C° 0.7 mm 1 m/S 747 mmHg 98%
14:00 +2°C° 0.7 mm 1 m/S 748 mmHg 98%
15:00 +2°C° 0.2 mm 1 m/S 748 mmHg 98%
16:00 +1°C° 0.2 mm 2 m/S 748 mmHg 98%
17:00 +1°C° 0.2 mm 2 m/S 748 mmHg 98%
18:00 +2°C° 0.1 mm 1 m/S 748 mmHg 98%
19:00 +2°C° 0.1 mm 1 m/S 748 mmHg 97%
20:00 +1°C° 0.1 mm 0 m/S 749 mmHg 97%
21:00 0°C° 0.1 mm 0 m/S 749 mmHg 97%
22:00 0°C° 0.1 mm 0 m/S 749 mmHg 98%
23:00 0°C° 0.1 mm 0 m/S 749 mmHg 98%

übermorgen, 30 November, Montag

Zeit Temperatur Niederschläge Wind Luftdruck Luftfeuchtigkeit
00:00 0°C° 0.1 mm 0 m/S 749 mmHg 98%
01:00 0°C° 0.1 mm 0 m/S 750 mmHg 98%
02:00 +1°C° 0.1 mm 0 m/S 750 mmHg 98%
03:00 0°C° 0.1 mm 0 m/S 750 mmHg 98%
04:00 0°C° 0.1 mm 0 m/S 749 mmHg 98%
05:00 0°C° 0.1 mm 0 m/S 749 mmHg 98%
06:00 0°C° 0.3 mm 0 m/S 749 mmHg 98%
07:00 0°C° 0.3 mm 0 m/S 750 mmHg 98%
08:00 +1°C° 0.3 mm 1 m/S 750 mmHg 98%
09:00 +1°C° 0.3 mm 1 m/S 750 mmHg 96%
10:00 +1°C° 0.3 mm 1 m/S 750 mmHg 95%
11:00 +2°C° 0.3 mm 1 m/S 750 mmHg 93%
12:00 +2°C° 0.2 mm 1 m/S 750 mmHg 92%
13:00 +2°C° 0.2 mm 1 m/S 750 mmHg 91%
14:00 +1°C° 0.2 mm 2 m/S 750 mmHg 90%
15:00 +1°C° 0.1 mm 1 m/S 751 mmHg 91%
16:00 +1°C° 0.1 mm 1 m/S 751 mmHg 92%
17:00 +1°C° 0.1 mm 1 m/S 751 mmHg 93%
18:00 +1°C° 0 mm 1 m/S 751 mmHg 92%
19:00 +1°C° 0 mm 1 m/S 752 mmHg 91%
20:00 +1°C° 0 mm 1 m/S 752 mmHg 91%
21:00 0°C° 0 mm 1 m/S 752 mmHg 91%
22:00 0°C° 0 mm 1 m/S 752 mmHg 91%
23:00 0°C° 0 mm 1 m/S 752 mmHg 90%

1 Dezember, Dienstag

Zeit Temperatur Niederschläge Wind Luftdruck Luftfeuchtigkeit
00:00 0°C° 0 mm 1 m/S 753 mmHg 90%
01:00 0°C° 0 mm 1 m/S 753 mmHg 90%
02:00 0°C° 0 mm 1 m/S 753 mmHg 89%
03:00 -1°C° 0 mm 1 m/S 753 mmHg 89%
04:00 -1°C° 0 mm 1 m/S 753 mmHg 89%
05:00 -1°C° 0 mm 1 m/S 753 mmHg 90%
06:00 -1°C° 0 mm 1 m/S 753 mmHg 89%
07:00 -2°C° 0 mm 1 m/S 754 mmHg 89%
08:00 -2°C° 0 mm 1 m/S 754 mmHg 89%
09:00 -1°C° 0 mm 1 m/S 754 mmHg 85%
10:00 -1°C° 0 mm 1 m/S 754 mmHg 82%
11:00 0°C° 0 mm 1 m/S 754 mmHg 78%
12:00 0°C° 0 mm 1 m/S 754 mmHg 78%
13:00 0°C° 0 mm 1 m/S 754 mmHg 79%
14:00 0°C° 0 mm 1 m/S 755 mmHg 80%
15:00 -1°C° 0 mm 1 m/S 755 mmHg 83%
16:00 -1°C° 0 mm 1 m/S 755 mmHg 85%
17:00 -2°C° 0 mm 1 m/S 755 mmHg 88%
18:00 -2°C° 0 mm 1 m/S 755 mmHg 89%
19:00 -4°C° 0 mm 2 m/S 755 mmHg 89%
20:00 -4°C° 0 mm 2 m/S 755 mmHg 89%
21:00 -4°C° 0 mm 2 m/S 756 mmHg 91%
22:00 -4°C° 0 mm 2 m/S 756 mmHg 92%
23:00 -4°C° 0 mm 2 m/S 756 mmHg 94%

2 Dezember, Mittwoch

Zeit Temperatur Niederschläge Wind Luftdruck Luftfeuchtigkeit
00:00 -3°C° 0.1 mm 2 m/S 756 mmHg 95%
01:00 -3°C° 0.1 mm 2 m/S 756 mmHg 95%
02:00 -2°C° 0.1 mm 2 m/S 756 mmHg 96%
03:00 -2°C° 0.2 mm 2 m/S 755 mmHg 95%
04:00 -2°C° 0.2 mm 2 m/S 755 mmHg 95%
05:00 -2°C° 0.2 mm 3 m/S 755 mmHg 95%
06:00 -4°C° 0.1 mm 3 m/S 755 mmHg 92%
07:00 -4°C° 0.1 mm 3 m/S 755 mmHg 90%
08:00 -4°C° 0.1 mm 3 m/S 755 mmHg 88%
09:00 -4°C° 0 mm 3 m/S 755 mmHg 87%
10:00 -4°C° 0 mm 3 m/S 755 mmHg 85%
11:00 -4°C° 0 mm 3 m/S 755 mmHg 84%
12:00 -4°C° 0 mm 3 m/S 755 mmHg 85%
13:00 -4°C° 0 mm 3 m/S 755 mmHg 87%
14:00 -4°C° 0 mm 3 m/S 755 mmHg 89%
15:00 -4°C° 0.1 mm 3 m/S 755 mmHg 90%
16:00 -4°C° 0.1 mm 3 m/S 755 mmHg 92%
17:00 -4°C° 0.1 mm 3 m/S 755 mmHg 93%
18:00 -5°C° 0.1 mm 3 m/S 755 mmHg 93%
19:00 -5°C° 0.1 mm 3 m/S 755 mmHg 94%
20:00 -5°C° 0.1 mm 3 m/S 755 mmHg 94%
21:00 -5°C° 0.1 mm 3 m/S 755 mmHg 94%
22:00 -5°C° 0.1 mm 3 m/S 755 mmHg 94%
23:00 -5°C° 0.1 mm 3 m/S 755 mmHg 94%

3 Dezember, Donnerstag

Zeit Temperatur Niederschläge Wind Luftdruck Luftfeuchtigkeit
00:00 -5°C° 0.1 mm 3 m/S 755 mmHg 94%
01:00 -5°C° 0.1 mm 3 m/S 755 mmHg 94%
02:00 -5°C° 0.1 mm 3 m/S 755 mmHg 94%
03:00 -5°C° 0.1 mm 3 m/S 755 mmHg 94%
04:00 -5°C° 0.1 mm 3 m/S 755 mmHg 94%
05:00 -5°C° 0.1 mm 3 m/S 755 mmHg 94%
06:00 -5°C° 0.1 mm 3 m/S 755 mmHg 94%
07:00 -5°C° 0.1 mm 3 m/S 755 mmHg 94%
08:00 -5°C° 0.1 mm 3 m/S 755 mmHg 94%
09:00 -5°C° 0.1 mm 3 m/S 755 mmHg 93%
10:00 -4°C° 0.1 mm 3 m/S 755 mmHg 92%
11:00 -4°C° 0.1 mm 3 m/S 755 mmHg 91%
12:00 -4°C° 0 mm 3 m/S 755 mmHg 91%
13:00 -4°C° 0 mm 3 m/S 755 mmHg 91%
14:00 -4°C° 0 mm 3 m/S 755 mmHg 92%
15:00 -4°C° 0.1 mm 3 m/S 755 mmHg 93%
16:00 -4°C° 0.1 mm 3 m/S 755 mmHg 94%
17:00 -5°C° 0.1 mm 3 m/S 755 mmHg 95%
18:00 -5°C° 0.1 mm 3 m/S 755 mmHg 95%
19:00 -5°C° 0.1 mm 3 m/S 755 mmHg 95%
20:00 -5°C° 0.1 mm 3 m/S 755 mmHg 94%
21:00 -5°C° 0.1 mm 3 m/S 755 mmHg 94%
22:00 -5°C° 0.1 mm 3 m/S 755 mmHg 94%
23:00 -6°C° 0.1 mm 3 m/S 755 mmHg 94%
Mehr zeigen

Wir brauchen deine Erlaubnis

Meteoprog und unser Service Anbieter werden persönliche Daten aufbewahren, so wie Cookies, Geräte Bezeichnung oder ähnliche Technologien von deinem Gerät und Prozess, so wie Persönliche Daten Inhalte und Werbungen, genauso wie social Media und den Verkehr zu analysieren.

  • Aufbewahrung und/oder Zugang zu deiner Geräte Informationen.

    Cookies, Geräte Bezeichnung oder andere Informationen, können aufbewahrt oder Zugang zu deinem Gerät erhalten, für den Grund, der oben angegeben wird.

  • Personalisierte Werbung und Inhalte, Messungen, Einblick in das Publikum und Produkt Entwicklung.

    Werbungen und Inhalte können personalisiert werden, basierend auf ein Profil. Mehr Daten können besser personalisierte Werbungen und Inhalte hinzufügen. Werbung und Inhalte können gezeigt und gemessen werden. Einblicke über das Publikum, welche die Werbung gesehen haben und den Inhalt, können abgeleitet werden. So wie Daten können genutzt werden, um es zu verbessern oder die Benutzer Erfahrung zu verbessern das System und die Software.

Wenn du “Ich stimme zu” klickst, erlaubst du uns, die Cookies zu benutzen die Geräte Bezeichnung, den Web oder ähnliche Technologien zu benutzen. Deine Settings, können in deinem Gerät bei deinem Browser geändert werden.

Für den bestimmten Zweck, berechtigten Interessen beruhen darauf, mehr als auf den Inhalt. Du kannst mehr darüber in unseren Privaten und Cookie Politik lesen.